Regional Weather Roundup
Issued by NWS New Orleans/Baton Rouge, LA

Home | Current Version | Previous Version | Graphics & Text | Print | Product List | Glossary On
Versions: 1 2 3 4 5 6 7 8 9 10 11 12 13 14 15 16 17 18 19 20 21 22 23 24 25 26 27 28 29 30 31 32 33 34 35 36 37 38 39 40 41 42 43 44 45 46 47 48 49 50
039
ASUS44 KLIX 301605
RWRLIX
NEW ORLEANS REGIONAL WEATHER ROUNDUP
NATIONAL WEATHER SERVICE NEW ORLEANS LA
1100 AM CDT THU OCT 30 2014

NOTE: "FAIR" INDICATES FEW OR NO CLOUDS BELOW 12,000 FEET WITH NO
      SIGNIFICANT WEATHER AND/OR OBSTRUCTIONS TO VISIBILITY.
      SKY/WX - SKY CONDITION AND SIGNIFICANT WEATHER.
      TMP - AIR TEMPERATURE.     DP    - DEWPOINT TEMPERATURE.
      RH  - RELATIVE HUMIDITY.   PRES  - PRESSURE.
      HI  - HEAT INDEX.          WCI   - WIND CHILL INDEX.

*  THESE STATIONS ARE NOT NWS OR FAA STATIONS AND ARE NOT UNDER
   NWS QUALITY CONTROL.

LAZ038-040-048-061>063-065>067-069-301700-
SOUTHEAST LOUISIANA

CITY           SKY/WX    TMP DP  RH WIND       PRES   REMARKS
N.O. AUDUBON     N/A    N/A N/A N/A MISG        N/A
N.O. INTL ARPT SUNNY     70  47  43 NE14      30.13R
N.O. LAKEFRONT SUNNY     69  46  43 NE15      30.13S
N.O. DOWNTOWN*   N/A     70  41  35 N9G18     30.12S
SLIDELL        SUNNY     68  44  42 N13       30.12F
BATON ROUGE    SUNNY     67  43  41 E6G20     30.15S
BOOTHVILLE     SUNNY     71  57  61 NE12G21   30.09S
BELLE CHASSE   SUNNY     71  43  36 NE16      30.11S
BOGALUSA*        N/A     68  43  40 NE10G16   30.16S
NEW ROADS*       N/A     67  46  45 NE8       30.16S
GONZALES*        N/A     67  44  43 NE9       30.13S
HAMMOND*       SUNNY     68  37  32 E10       30.15S
HOUMA*         SUNNY     72  48  43 NE13      30.11S
PORT FOURCHON* SUNNY     70  57  64 NE15      30.12S

$$

MSZ070-080>082-301700-
SOUTHERN MISSISSIPPI

CITY           SKY/WX    TMP DP  RH WIND       PRES   REMARKS
MCCOMB         SUNNY     66  40  38 E8        30.15S
GULFPORT       SUNNY     69  44  40 NE10G21   30.11S
BILOXI         SUNNY     68  44  41 NE16      30.11S
PASCAGOULA     SUNNY     69  42  37 N14G20    30.11S
STENNIS ARPT*  SUNNY     68  37  32 NE14      30.13S

$$

COASTAL OBSERVATIONS
LAKE AND NEARSHORE STATIONS

STATION/POSITION TIME  TEMP    WIND        PRES    WAVE
                       AIR SEA DIR/SP/G            HT/PER
                 (UTC) (F)     (DEG/KT/KT) (MB)    (FT/S)
PASCAGOULA       1600   68      30/ 11/ 16 1018.9
WAVELAND YACHT   1600   65      40/ 11/ 13 1019.1
GRAND ISLE       1600   70 75   60/ 12/ 16 1019.4
SOUTHWEST PASS   1600   72 78              1018.8
NEW CANAL        1600   65 70   50/ 13/ 16 1020.3
SHELL BEACH      1600   67 68   50/ 17/ 20 1019.4

OFFSHORE STATIONS

STATION/POSITION TIME  TEMP    WIND        PRES    WAVE
                       AIR SEA DIR/SP/G            HT/PER
                 (UTC) (F)     (DEG/KT/KT) (MB)    (FT/S)
64 S DAUPHIN ISL 1509   70 78   50/ 19/ 21 1018.4    4/ 5

$$




USA.gov is the U.S. government's official web portal to all federal, state and local government web resources and services.